Voltar ao catálogo

CZ-4 DEB

AtivoPO
NORAD 35326·DEBRIS·🇨🇳 China

Lançado Oct 14, 1999 de Taiyuan Satellite Launch Center

Loading…

Próximas Passagens (próximas 24 horas)

TLE

AtualizadoSource: Space-Track

Época: Sep 14, 2026, 08:18 UTC

1 35326U 99057SE  26257.34594922 -.00000142  00000-0 -56096-4 0  9998
2 35326  98.4178 113.3279 0232851  68.5950 293.9885 14.00354406666243

Acompanhe CZ-4 DEB em tempo real com AllMySat

Download on the App Store